EW1335 Weather Reports


time (UTC)temp
F
wind
direction
speed
knots
gust
knots
rain 1hr
in
rain 24hr
in
rain mn
in
humidity
%
barometer
mb
20260510022436 54 205 6.1 7.0 0.00 0.00 0.00 82 1005.2
20260510021935 53 208 0.9 6.1 0.00 0.00 0.00 82 1005.1
20260510021505 53 112 2.6 6.1 0.00 0.00 0.00 83 1005.2
20260510021005 53 160 0.0 7.0 0.00 0.00 0.00 83 1005.1
20260510020505 53 179 1.7 7.0 0.00 0.00 0.00 83 1005.1
20260510020006 53 146 0.0 7.0 0.00 0.00 0.00 83 1004.9
20260510015435 53 149 0.0 7.0 0.00 0.00 0.00 83 1004.8
20260510014937 53 198 0.9 7.8 0.00 0.00 0.00 83 1004.7
20260510014005 53 224 0.0 4.3 0.00 0.00 0.00 82 1005.5
20260510013005 53 44 1.7 7.8 0.00 0.00 0.00 82 1005.5
20260510012435 53 169 3.5 6.1 0.00 0.00 0.00 82 1005.7
20260510012005 53 68 0.9 4.3 0.00 0.00 0.00 82 1005.7
20260510011005 53 226 0.0 5.2 0.00 0.00 0.00 81 1005.5
20260510010505 54 214 0.9 6.1 0.00 0.00 0.00 81 1005.6
20260510005505 54 179 2.6 5.2 0.00 0.00 0.00 80 1005.4
20260510005005 54 231 0.0 4.3 0.00 0.00 0.00 80 1005.4
20260510004005 54 65 1.7 3.5 0.00 0.00 0.00 79 1005.3
20260510003505 54 74 0.0 4.3 0.00 0.00 0.00 79 1005.3
20260510003005 54 244 1.7 5.2 0.00 0.00 0.00 78 1005.3
20260510002504 54 6 0.9 5.2 0.00 0.00 0.00 78 1005.4
20260510002005 54 59 0.9 3.5 0.00 0.00 0.00 78 1005.5
20260510001504 55 70 0.0 0.9 0.00 0.00 0.00 77 1005.5
20260510001004 55 70 0.0 2.6 0.00 0.00 0.00 76 1005.6
20260510000506 56 70 0.0 2.6 0.00 0.00 0.00 75 1005.6
20260510000005 56 189 1.7 2.6 0.00 0.00 0.00 75 1005.5
20260509235504 56 201 2.6 2.6 0.00 0.00 0.00 74 1005.2
20260509234504 57 62 1.7 8.7 0.00 0.00 0.00 72 1005.2
20260509234004 58 150 0.0 6.1 0.00 0.00 0.00 71 1005.5
20260509233504 58 75 0.0 5.2 0.00 0.00 0.00 71 1005.5
20260509232504 57 203 1.7 6.1 0.00 0.00 0.00 71 1005.3
20260509231504 58 77 0.9 6.1 0.00 0.00 0.00 70 1005.4
20260509231004 59 279 0.9 6.1 0.00 0.00 0.00 70 1005.5
20260509230504 59 288 1.7 3.5 0.00 0.00 0.00 68 1005.6
20260509230004 60 184 0.0 6.1 0.00 0.00 0.00 67 1005.5
20260509225504 61 90 2.6 7.8 0.00 0.00 0.00 65 1005.3
20260509225004 61 98 1.7 7.8 0.00 0.00 0.00 65 1005.2
20260509224504 60 212 2.6 7.0 0.00 0.00 0.00 66 1005.2
20260509223503 60 203 0.0 7.8 0.00 0.00 0.00 68 1005.2
20260509223004 60 86 0.0 7.8 0.00 0.00 0.00 67 1005.3
20260509222503 60 16 1.7 5.2 0.00 0.00 0.00 66 1005.3
20260509222004 60 118 0.0 6.1 0.00 0.00 0.00 67 1005.2
20260509221503 60 211 1.7 6.1 0.00 0.00 0.00 66 1005.1
20260509221003 60 73 3.5 9.6 0.00 0.00 0.00 67 1005.1
20260509220503 61 181 0.9 9.6 0.00 0.00 0.00 66 1005.2
20260509220003 62 192 1.7 9.6 0.00 0.00 0.00 65 1005.4
20260509215003 61 304 0.9 5.2 0.00 0.00 0.00 65 1005.7
20260509214503 60 131 0.9 7.0 0.00 0.00 0.00 66 1005.6
20260509214003 61 76 3.5 7.0 0.00 0.00 0.00 65 1005.6
20260509213503 61 175 0.0 7.8 0.00 0.00 0.00 65 1005.6
20260509213003 61 11 0.9 8.7 0.00 0.00 0.00 64 1005.6
20260509212502 61 229 0.9 8.7 0.00 0.00 0.00 65 1005.6
20260509212002 63 206 1.7 8.7 0.00 0.00 0.00 62 1005.5
20260509211502 62 241 7.0 8.7 0.00 0.00 0.00 64 1005.4
20260509211002 62 205 0.9 6.1 0.00 0.00 0.00 64 1005.7
20260509210502 62 212 1.7 10.4 0.00 0.00 0.00 64 1005.6
20260509210002 62 73 1.7 12.2 0.00 0.00 0.00 63 1005.6
20260509205502 63 161 3.5 12.2 0.00 0.00 0.00 62 1005.6
20260509205002 63 87 2.6 9.6 0.00 0.00 0.00 63 1005.5
20260509204502 63 219 4.3 7.8 0.00 0.00 0.00 61 1005.6
20260509203502 63 118 2.6 10.4 0.00 0.00 0.00 62 1005.6
20260509203002 63 188 5.2 8.7 0.00 0.00 0.00 61 1005.8
20260509202002 64 60 2.6 11.3 0.00 0.00 0.00 59 1005.8
20260509201502 64 33 2.6 12.2 0.00 0.00 0.00 59 1005.8
20260509200502 64 307 2.6 8.7 0.00 0.00 0.00 58 1005.6
20260509200002 64 110 1.7 8.7 0.00 0.00 0.00 57 1005.5
20260509195502 64 270 2.6 13.9 0.00 0.00 0.00 58 1005.7
20260509195002 64 127 6.1 13.9 0.00 0.00 0.00 57 1005.7
20260509194502 64 147 1.7 10.4 0.00 0.00 0.00 57 1005.9
20260509193501 66 51 1.7 10.4 0.00 0.00 0.00 53 1006.0
20260509193002 67 232 5.2 10.4 0.00 0.00 0.00 51 1006.1
20260509192001 66 133 1.7 11.3 0.00 0.00 0.00 51 1005.9
20260509191001 65 217 0.9 7.8 0.00 0.00 0.00 50 1005.9
20260509190501 66 325 0.9 5.2 0.00 0.00 0.00 48 1006.1
20260509190001 67 354 4.3 7.0 0.00 0.00 0.00 47 1006.0
20260509185501 67 209 1.7 7.0 0.00 0.00 0.00 47 1006.1
20260509185001 66 237 0.9 7.0 0.00 0.00 0.00 46 1006.2
20260509184001 65 151 1.7 9.6 0.00 0.00 0.00 47 1006.0
20260509183501 65 92 7.0 9.6 0.00 0.00 0.00 48 1006.1
20260509183002 66 61 3.5 8.7 0.00 0.00 0.00 47 1006.2
20260509182501 67 203 3.5 6.1 0.00 0.00 0.00 46 1006.2
20260509182001 66 145 2.6 7.0 0.00 0.00 0.00 45 1006.3
20260509181501 65 175 1.7 7.0 0.00 0.00 0.00 46 1006.2
20260509181001 65 12 2.6 7.8 0.00 0.00 0.00 45 1006.2
20260509180502 65 108 5.2 7.8 0.00 0.00 0.00 49 1006.3
20260509174500 64 221 9.6 9.6 0.00 0.00 0.00 51 1006.5
20260509174000 64 139 0.0 8.7 0.00 0.00 0.00 51 1006.5
20260509173500 64 315 2.6 8.7 0.00 0.00 0.00 51 1006.8
20260509173000 64 205 4.3 8.7 0.00 0.00 0.00 51 1006.8
20260509172500 64 184 0.9 8.7 0.00 0.00 0.00 51 1006.7
20260509171500 62 86 2.6 8.7 0.00 0.00 0.00 55 1006.8
20260509170500 63 44 2.6 9.6 0.00 0.00 0.00 55 1006.9
20260509170000 62 270 1.7 11.3 0.00 0.00 0.00 54 1007.0
20260509165500 61 311 1.7 11.3 0.00 0.00 0.00 56 1007.2
20260509165000 61 219 5.2 9.6 0.00 0.00 0.00 56 1007.3
20260509164500 62 156 0.9 9.6 0.00 0.00 0.00 53 1007.4
20260509164000 63 243 9.6 11.3 0.00 0.00 0.00 52 1007.5
20260509163000 62 165 4.3 8.7 0.00 0.00 0.00 52 1007.4
20260509161959 62 191 0.9 4.3 0.00 0.00 0.00 50 1007.6
20260509161459 62 197 1.7 5.2 0.00 0.00 0.00 49 1007.7
20260509160959 62 193 0.9 7.0 0.00 0.00 0.00 49 1007.7
20260509160459 62 94 0.9 7.0 0.00 0.00 0.00 49 1007.8
20260509155959 61 65 1.7 4.3 0.00 0.00 0.00 49 1007.7
20260509155459 62 84 0.9 8.7 0.00 0.00 0.00 48 1008.0
20260509154459 63 290 7.0 8.7 0.00 0.00 0.00 44 1008.0
20260509154001 63 94 2.6 6.1 0.00 0.00 0.00 44 1008.1
20260509153459 63 51 1.7 7.0 0.00 0.00 0.00 47 1008.1
20260509152959 62 211 0.9 7.0 0.00 0.00 0.00 46 1008.3
20260509152459 63 56 2.6 7.0 0.00 0.00 0.00 44 1008.4
20260509151959 63 129 2.6 7.0 0.00 0.00 0.00 45 1008.4
20260509150959 62 175 1.7 7.8 0.00 0.00 0.00 47 1008.5
20260509150459 62 103 0.9 7.8 0.00 0.00 0.00 44 1008.7
20260509145958 62 205 1.7 7.0 0.00 0.00 0.00 46 1008.7
20260509145000 61 97 1.7 7.8 0.00 0.00 0.00 46 1008.8
20260509144459 61 266 3.5 7.8 0.00 0.00 0.00 45 1008.9
20260509143958 61 99 7.0 7.0 0.00 0.00 0.00 45 1008.9
20260509143000 61 200 2.6 5.2 0.00 0.00 0.00 46 1009.1
20260509142459 61 205 0.9 7.0 0.00 0.00 0.00 46 1009.2
20260509141958 60 183 0.9 7.0 0.00 0.00 0.00 47 1009.1
20260509141458 60 182 2.6 7.0 0.00 0.00 0.00 47 1009.2
20260509140958 60 229 0.9 7.0 0.00 0.00 0.00 46 1009.2
20260509140458 60 20 1.7 9.6 0.00 0.00 0.00 46 1009.3
20260509135958 59 93 2.6 9.6 0.00 0.00 0.00 46 1009.1
20260509135458 59 92 0.9 6.1 0.00 0.00 0.00 46 1009.3
20260509134958 59 226 0.9 7.8 0.00 0.00 0.00 47 1009.5
20260509134458 59 85 4.3 8.7 0.00 0.00 0.00 46 1009.6
20260509134000 59 222 0.9 8.7 0.00 0.00 0.00 46 1009.3
20260509133458 59 126 5.2 7.0 0.00 0.00 0.00 46 1009.5
20260509132958 58 105 0.0 6.1 0.00 0.00 0.00 46 1009.4
20260509132458 58 215 1.7 7.0 0.00 0.00 0.00 47 1009.4
20260509131958 57 201 1.7 7.0 0.00 0.00 0.00 46 1009.4
20260509130958 57 26 0.9 7.0 0.00 0.00 0.00 48 1009.5
20260509130458 57 221 4.3 5.2 0.00 0.00 0.00 47 1009.6
20260509125958 56 217 0.0 5.2 0.00 0.00 0.00 48 1009.6
20260509125458 55 89 0.9 6.1 0.00 0.00 0.00 50 1009.8
20260509124958 55 181 0.9 6.1 0.00 0.00 0.00 52 1009.6
20260509123958 53 161 0.0 6.1 0.00 0.00 0.00 54 1009.5
20260509123458 53 63 3.5 3.5 0.00 0.00 0.00 55 1009.6
20260509122957 52 63 0.0 3.5 0.00 0.00 0.00 55 1009.8
20260509121957 51 113 0.9 4.3 0.00 0.00 0.00 57 1009.7
20260509120957 49 135 0.0 3.5 0.00 0.00 0.00 64 1009.6
20260509120457 48 78 2.6 3.5 0.00 0.00 0.00 64 1009.7
20260509115959 47 43 0.9 2.6 0.00 0.00 0.00 63 1009.7
20260509115457 47 82 0.0 2.6 0.00 0.00 0.00 66 1009.8
20260509114957 46 174 1.7 1.7 0.00 0.00 0.00 67 1009.8
20260509114457 44 66 0.9 0.9 0.00 0.00 0.00 69 1009.8
20260509113957 43 132 0.0 0.9 0.00 0.00 0.00 71 1009.8
20260509113459 41 78 0.0 0.9 0.00 0.00 0.00 75 1009.7
20260509112957 40 105 0.0 0.9 0.00 0.00 0.00 80 1009.8
20260509111957 37 161 0.0 0.9 0.00 0.00 0.00 86 1009.7
20260509111459 35 122 0.0 0.9 0.00 0.00 0.00 90 1009.6
20260509110957 34 151 0.0 1.7 0.00 0.00 0.00 93 1009.5
20260509110457 33 37 0.0 1.7 0.00 0.00 0.00 95 1009.6
20260509105957 32 120 0.0 0.0 0.00 0.00 0.00 95 1009.5
20260509105457 31 159 0.0 0.0 0.00 0.00 0.00 96 1009.5
20260509104958 31 159 0.0 0.0 0.00 0.00 0.00 96 1009.6
20260509103957 30 159 0.0 0.0 0.00 0.00 0.00 96 1009.5
20260509103457 30 159 0.0 0.0 0.00 0.00 0.00 96 1009.5
20260509102957 30 159 0.0 0.0 0.00 0.00 0.00 96 1009.5
20260509102458 30 159 0.0 0.0 0.00 0.00 0.00 96 1009.5
20260509101956 30 159 0.0 0.0 0.00 0.00 0.00 96 1009.6
20260509101456 30 159 0.0 0.0 0.00 0.00 0.00 96 1009.5
20260509100456 30 159 0.0 0.0 0.00 0.00 0.00 96 1009.6
20260509095958 30 159 0.0 0.0 0.00 0.00 0.00 96 1009.6
20260509095456 30 159 0.0 0.0 0.00 0.00 0.00 96 1009.7
20260509094956 29 159 0.0 0.0 0.00 0.00 0.00 96 1009.7
20260509094456 29 159 0.0 0.0 0.00 0.00 0.00 96 1009.7
20260509093956 29 159 0.0 0.0 0.00 0.00 0.00 95 1009.7
20260509093456 29 159 0.0 0.0 0.00 0.00 0.00 95 1009.7
20260509092456 29 159 0.0 0.0 0.00 0.00 0.00 95 1009.8
20260509091956 29 159 0.0 0.0 0.00 0.00 0.00 95 1009.7
20260509090456 29 159 0.0 0.0 0.00 0.00 0.00 94 1009.9
20260509090026 29 159 0.0 0.0 0.00 0.00 0.00 94 1009.8
20260509085456 29 159 0.0 0.0 0.00 0.00 0.00 94 1009.9
20260509084457 29 159 0.0 0.0 0.00 0.00 0.00 94 1009.8
20260509083457 30 159 0.0 0.0 0.00 0.00 0.00 94 1010.1
20260509082956 30 159 0.0 0.0 0.00 0.00 0.00 94 1010.1
20260509082455 30 159 0.0 0.0 0.00 0.00 0.00 93 1010.1
20260509081955 30 159 0.0 0.0 0.00 0.00 0.00 93 1010.1
20260509081455 30 159 0.0 0.0 0.00 0.00 0.00 93 1010.2
20260509080957 30 159 0.0 0.0 0.00 0.00 0.00 94 1010.2
20260509080455 30 159 0.0 0.0 0.00 0.00 0.00 93 1010.3
20260509075955 30 159 0.0 0.0 0.00 0.00 0.00 93 1010.3
20260509075455 30 159 0.0 0.0 0.00 0.00 0.00 93 1010.3
20260509074955 30 159 0.0 0.0 0.00 0.00 0.00 93 1010.3
20260509073955 30 159 0.0 0.0 0.00 0.00 0.00 92 1010.3
20260509073455 30 159 0.0 0.0 0.00 0.00 0.00 92 1010.3
20260509072955 30 159 0.0 0.0 0.00 0.00 0.00 93 1010.3
20260509071955 30 159 0.0 0.0 0.00 0.00 0.00 92 1010.3
20260509071455 30 159 0.0 0.0 0.00 0.00 0.00 92 1010.3
20260509070955 30 159 0.0 0.0 0.00 0.00 0.00 92 1010.4
20260509065955 30 159 0.0 0.0 0.00 0.00 0.00 91 1010.4
20260509065454 30 159 0.0 0.0 0.00 0.00 0.00 91 1010.4
20260509064955 30 159 0.0 0.0 0.00 0.00 0.00 91 1010.4
20260509064455 30 159 0.0 0.0 0.00 0.00 0.00 91 1010.4
20260509062454 30 159 0.0 0.0 0.00 0.00 0.00 90 1010.6
20260509061954 30 159 0.0 0.0 0.00 0.00 0.00 91 1010.6
20260509061454 30 159 0.0 0.0 0.00 0.00 0.00 90 1010.6
20260509060456 31 159 0.0 0.0 0.00 0.00 0.00 90 1010.7
20260509055954 31 159 0.0 0.0 0.00 0.00 0.00 90 1010.7
20260509055454 31 159 0.0 0.0 0.00 0.00 0.00 90 1010.7
20260509054454 30 159 0.0 0.0 0.00 0.00 0.00 90 1010.8
20260509053454 31 159 0.0 0.0 0.00 0.00 0.00 89 1010.7
20260509052954 31 159 0.0 0.0 0.00 0.00 0.00 88 1010.8
20260509051954 31 159 0.0 0.0 0.00 0.00 0.00 88 1010.9
20260509051454 31 159 0.0 0.0 0.00 0.00 0.00 88 1010.9
20260509050954 31 159 0.0 0.0 0.00 0.00 0.00 89 1011.0
20260509050454 32 159 0.0 0.0 0.00 0.00 0.00 89 1011.1
20260509045954 32 159 0.0 0.0 0.00 0.00 0.00 89 1011.1
20260509044954 32 159 0.0 0.0 0.00 0.00 0.00 90 1011.1
20260509043954 31 159 0.0 0.0 0.00 0.00 0.00 90 1011.1
20260509043454 31 159 0.0 0.0 0.00 0.00 0.00 90 1011.0
20260509042954 31 159 0.0 0.0 0.00 0.00 0.00 90 1011.0
20260509042453 31 159 0.0 0.0 0.00 0.00 0.00 90 1011.0
20260509041954 31 159 0.0 0.0 0.00 0.00 0.00 90 1010.9
20260509041453 32 159 0.0 0.0 0.00 0.00 0.00 89 1010.9
20260509040954 32 159 0.0 0.0 0.00 0.00 0.00 89 1010.9
20260509040453 32 159 0.0 0.0 0.00 0.00 0.00 89 1010.8
20260509035953 32 159 0.0 0.0 0.00 0.00 0.00 89 1010.8
20260509035453 32 159 0.0 0.0 0.00 0.00 0.00 89 1010.9
20260509034953 32 159 0.0 0.0 0.00 0.00 0.00 88 1010.8
20260509034453 32 159 0.0 0.0 0.00 0.00 0.00 88 1010.8
20260509033953 32 159 0.0 0.0 0.00 0.00 0.00 89 1010.8
20260509032953 32 159 0.0 0.0 0.00 0.00 0.00 90 1010.8
20260509032453 32 159 0.0 0.0 0.00 0.00 0.00 89 1010.9
20260509031453 32 159 0.0 0.0 0.00 0.00 0.00 89 1011.0
20260509030953 32 159 0.0 0.0 0.00 0.00 0.00 88 1011.0
20260509030453 32 159 0.0 0.0 0.00 0.00 0.00 88 1011.1
20260509025954 32 159 0.0 0.0 0.00 0.00 0.00 89 1011.1
20260509025453 32 159 0.0 0.0 0.00 0.00 0.00 88 1011.1
20260509024953 33 159 0.0 0.0 0.00 0.00 0.00 88 1011.1
20260509023954 33 159 0.0 0.0 0.00 0.00 0.00 87 1011.0
20260509023452 33 159 0.0 0.0 0.00 0.00 0.00 86 1011.0
20260509022953 34 159 0.0 0.0 0.00 0.00 0.00 85 1011.0